When you browse on this site, cookies collect data to enhance your experience and personalize the content and advertising you see.
Visit our Privacy Policy to learn more. By continuing to use the site, you agree to this use of cookies and data.
EN

Hourly Weather Stykkishólmur

Today, 5 August, Wednesday

Time Temperature Precipitation Wind Pressure Humidity
00:00 +8°C° 1.3 mm 3 mps 733 mmHg 96%
01:00 +7°C° 1.3 mm 4 mps 732 mmHg 96%
02:00 +7°C° 1.3 mm 4 mps 731 mmHg 96%
03:00 +7°C° 2.7 mm 4 mps 731 mmHg 96%
04:00 +7°C° 2.7 mm 4 mps 730 mmHg 96%
05:00 +7°C° 2.7 mm 5 mps 729 mmHg 96%
06:00 +8°C° 2.1 mm 5 mps 729 mmHg 96%
07:00 +8°C° 2.1 mm 5 mps 728 mmHg 95%
08:00 +8°C° 2.1 mm 6 mps 728 mmHg 94%
09:00 +9°C° 0.8 mm 6 mps 728 mmHg 93%
10:00 +9°C° 0.8 mm 6 mps 728 mmHg 91%
11:00 +10°C° 0.8 mm 6 mps 727 mmHg 89%
12:00 +10°C° 0.1 mm 6 mps 728 mmHg 86%
13:00 +11°C° 0.1 mm 7 mps 728 mmHg 83%
14:00 +12°C° 0.1 mm 8 mps 728 mmHg 80%
15:00 +12°C° 0.1 mm 8 mps 728 mmHg 79%
16:00 +11°C° 0.1 mm 8 mps 729 mmHg 79%
17:00 +11°C° 0.1 mm 8 mps 729 mmHg 79%
18:00 +11°C° 0.1 mm 6 mps 730 mmHg 81%
19:00 +10°C° 0.1 mm 5 mps 730 mmHg 83%
20:00 +11°C° 0.1 mm 4 mps 731 mmHg 85%
21:00 +10°C° 0.2 mm 4 mps 732 mmHg 85%
22:00 +10°C° 0.2 mm 4 mps 732 mmHg 86%
23:00 +10°C° 0.2 mm 4 mps 732 mmHg 87%

Tomorrow, 6 August, Thursday

Time Temperature Precipitation Wind Pressure Humidity
00:00 +9°C° 0.3 mm 3 mps 733 mmHg 87%
01:00 +9°C° 0.3 mm 3 mps 734 mmHg 88%
02:00 +9°C° 0.3 mm 2 mps 734 mmHg 89%
03:00 +9°C° 0.2 mm 3 mps 734 mmHg 88%
04:00 +9°C° 0.2 mm 3 mps 735 mmHg 88%
05:00 +9°C° 0.2 mm 3 mps 735 mmHg 88%
06:00 +10°C° 0.2 mm 4 mps 736 mmHg 85%
07:00 +9°C° 0.2 mm 5 mps 736 mmHg 83%
08:00 +9°C° 0.2 mm 6 mps 737 mmHg 81%
09:00 +10°C° 0.2 mm 7 mps 737 mmHg 79%
10:00 +10°C° 0.2 mm 8 mps 737 mmHg 77%
11:00 +11°C° 0.2 mm 8 mps 738 mmHg 75%
12:00 +11°C° 0.2 mm 8 mps 738 mmHg 74%
13:00 +11°C° 0.2 mm 8 mps 738 mmHg 74%
14:00 +11°C° 0.2 mm 8 mps 739 mmHg 74%
15:00 +11°C° 0.2 mm 8 mps 739 mmHg 73%
16:00 +11°C° 0.2 mm 7 mps 739 mmHg 71%
17:00 +11°C° 0.2 mm 7 mps 739 mmHg 70%
18:00 +12°C° 0 mm 5 mps 740 mmHg 73%
19:00 +11°C° 0 mm 4 mps 740 mmHg 75%
20:00 +10°C° 0 mm 2 mps 740 mmHg 78%
21:00 +10°C° 0 mm 2 mps 740 mmHg 79%
22:00 +10°C° 0 mm 1 mps 740 mmHg 81%
23:00 +9°C° 0 mm 1 mps 740 mmHg 82%

Day after tomorrow, 7 August, Friday

Time Temperature Precipitation Wind Pressure Humidity
00:00 +9°C° 0 mm 1 mps 740 mmHg 82%
01:00 +9°C° 0 mm 1 mps 740 mmHg 82%
02:00 +9°C° 0 mm 2 mps 740 mmHg 82%
03:00 +10°C° 0 mm 1 mps 740 mmHg 82%
04:00 +10°C° 0 mm 1 mps 740 mmHg 83%
05:00 +10°C° 0 mm 1 mps 740 mmHg 83%
06:00 +10°C° 0.1 mm 1 mps 740 mmHg 84%
07:00 +10°C° 0.1 mm 1 mps 741 mmHg 86%
08:00 +10°C° 0.1 mm 1 mps 741 mmHg 87%
09:00 +10°C° 0.4 mm 1 mps 742 mmHg 88%
10:00 +10°C° 0.4 mm 1 mps 742 mmHg 89%
11:00 +10°C° 0.4 mm 1 mps 743 mmHg 90%
12:00 +10°C° 0.2 mm 1 mps 743 mmHg 89%
13:00 +10°C° 0.2 mm 0 mps 743 mmHg 88%
14:00 +10°C° 0.2 mm 0 mps 744 mmHg 88%
15:00 +10°C° 0.1 mm 0 mps 744 mmHg 86%
16:00 +10°C° 0.1 mm 0 mps 745 mmHg 85%
17:00 +11°C° 0.1 mm 0 mps 745 mmHg 84%
18:00 +10°C° 0.1 mm 0 mps 745 mmHg 86%
19:00 +10°C° 0.1 mm 0 mps 746 mmHg 88%
20:00 +10°C° 0.1 mm 0 mps 746 mmHg 90%
21:00 +9°C° 0 mm 0 mps 746 mmHg 91%
22:00 +8°C° 0 mm 0 mps 747 mmHg 93%
23:00 +7°C° 0 mm 0 mps 747 mmHg 94%

8 August, Saturday

Time Temperature Precipitation Wind Pressure Humidity
00:00 +7°C° 0 mm 0 mps 747 mmHg 95%
01:00 +6°C° 0 mm 0 mps 747 mmHg 96%
02:00 +7°C° 0 mm 1 mps 748 mmHg 96%
03:00 +7°C° 0 mm 1 mps 748 mmHg 96%
04:00 +7°C° 0 mm 1 mps 748 mmHg 96%
05:00 +8°C° 0 mm 1 mps 748 mmHg 96%
06:00 +7°C° 0 mm 2 mps 749 mmHg 94%
07:00 +8°C° 0 mm 2 mps 749 mmHg 92%
08:00 +9°C° 0 mm 2 mps 749 mmHg 90%
09:00 +9°C° 0 mm 2 mps 750 mmHg 87%
10:00 +9°C° 0 mm 2 mps 750 mmHg 85%
11:00 +10°C° 0 mm 2 mps 750 mmHg 82%
12:00 +10°C° 0 mm 3 mps 750 mmHg 80%
13:00 +10°C° 0 mm 3 mps 750 mmHg 77%
14:00 +11°C° 0 mm 3 mps 751 mmHg 75%
15:00 +11°C° 0 mm 3 mps 751 mmHg 73%
16:00 +11°C° 0 mm 3 mps 751 mmHg 71%
17:00 +13°C° 0 mm 2 mps 751 mmHg 69%
18:00 +11°C° 0 mm 3 mps 751 mmHg 73%
19:00 +10°C° 0 mm 3 mps 751 mmHg 76%
20:00 +10°C° 0 mm 3 mps 752 mmHg 79%
21:00 +9°C° 0 mm 2 mps 752 mmHg 82%
22:00 +9°C° 0 mm 2 mps 752 mmHg 85%
23:00 +8°C° 0 mm 2 mps 752 mmHg 88%

9 August, Sunday

Time Temperature Precipitation Wind Pressure Humidity
00:00 +8°C° 0 mm 2 mps 752 mmHg 87%
01:00 +9°C° 0 mm 2 mps 751 mmHg 87%
02:00 +9°C° 0 mm 2 mps 751 mmHg 87%
03:00 +9°C° 0.2 mm 2 mps 751 mmHg 88%
04:00 +9°C° 0.2 mm 2 mps 751 mmHg 88%
05:00 +9°C° 0.2 mm 3 mps 750 mmHg 89%
06:00 +9°C° 0.4 mm 3 mps 750 mmHg 90%
07:00 +9°C° 0.4 mm 3 mps 749 mmHg 90%
08:00 +9°C° 0.4 mm 3 mps 749 mmHg 90%
09:00 +9°C° 0.1 mm 3 mps 749 mmHg 90%
10:00 +10°C° 0.1 mm 3 mps 748 mmHg 89%
11:00 +10°C° 0.1 mm 3 mps 748 mmHg 88%
12:00 +10°C° 0.3 mm 3 mps 748 mmHg 90%
13:00 +11°C° 0.3 mm 3 mps 747 mmHg 91%
14:00 +11°C° 0.3 mm 3 mps 747 mmHg 92%
15:00 +11°C° 0.5 mm 3 mps 747 mmHg 93%
16:00 +11°C° 0.5 mm 3 mps 746 mmHg 93%
17:00 +12°C° 0.5 mm 3 mps 746 mmHg 94%
18:00 +12°C° 0.4 mm 3 mps 746 mmHg 94%
19:00 +12°C° 0.4 mm 3 mps 746 mmHg 94%
20:00 +12°C° 0.4 mm 3 mps 746 mmHg 95%
21:00 +12°C° 0.8 mm 3 mps 745 mmHg 95%
22:00 +12°C° 0.8 mm 3 mps 745 mmHg 95%
23:00 +12°C° 0.8 mm 3 mps 745 mmHg 96%

10 August, Monday

Time Temperature Precipitation Wind Pressure Humidity
00:00 +11°C° 1.3 mm 3 mps 745 mmHg 96%
01:00 +11°C° 1.3 mm 3 mps 745 mmHg 96%
02:00 +11°C° 1.3 mm 3 mps 745 mmHg 97%
03:00 +11°C° 1 mm 3 mps 745 mmHg 97%
04:00 +11°C° 1 mm 4 mps 745 mmHg 97%
05:00 +11°C° 1 mm 4 mps 745 mmHg 97%
06:00 +11°C° 0.4 mm 4 mps 745 mmHg 96%
07:00 +11°C° 0.4 mm 4 mps 746 mmHg 96%
08:00 +11°C° 0.4 mm 4 mps 746 mmHg 96%
09:00 +12°C° 0.1 mm 5 mps 746 mmHg 93%
10:00 +12°C° 0.1 mm 5 mps 747 mmHg 91%
11:00 +12°C° 0.1 mm 5 mps 747 mmHg 88%
12:00 +12°C° 0.1 mm 5 mps 747 mmHg 88%
13:00 +11°C° 0.1 mm 6 mps 747 mmHg 88%
14:00 +11°C° 0.1 mm 6 mps 747 mmHg 88%
15:00 +10°C° 0.5 mm 5 mps 747 mmHg 89%
16:00 +10°C° 0.5 mm 5 mps 747 mmHg 91%
17:00 +11°C° 0.5 mm 4 mps 747 mmHg 92%
18:00 +11°C° 0.4 mm 4 mps 747 mmHg 92%
19:00 +11°C° 0.4 mm 4 mps 747 mmHg 92%
20:00 +11°C° 0.4 mm 4 mps 747 mmHg 92%
21:00 +11°C° 0.3 mm 4 mps 747 mmHg 93%
22:00 +11°C° 0.3 mm 4 mps 747 mmHg 94%
23:00 +11°C° 0.3 mm 4 mps 747 mmHg 95%
Show more